Weather Roundup
Issued by NWS

Home | Current Version | Previous Version | Text Only | Print | Product List | Glossary On
Versions: 1 2 3 4 5 6 7 8 9 10 11 12 13 14 15 16 17 18 19 20 21 22 23 24 25 26 27 28 29 30 31 32 33 34 35 36 37 38 39 40 41 42 43 44 45 46 47 48 49 50
000
NZUS93 KARX 170210
HRRWXR

CURRENT HOURLY OBSERVATIONS ACROSS
MUCH OF THE UPPER MISSISSIPPI VALLEY
NATIONAL WEATHER SERVICE LA CROSSE WI
800 PM CST THU NOV 16 2017


...SOUTHEAST MINNESOTA...


CITY           SKY/WX    TMP DP  RH WIND       PRES   REMARKS
ROCHESTER      PTCLDY    32  27  81 SE17G24   30.05F WCI  21
ROCHESTER/MAYO FAIR      32  27  82 SE12G20   30.07S WCI  23
WINONA         CLOUDY    34  28  80 SE8       30.12F WCI  27
AUSTIN         CLOUDY    32  27  80 SE12G18   30.04F WCI  23
ALBERT LEA     CLOUDY    30  27  86 SE17G26   30.00F WCI  18
DODGE CENTER   CLOUDY    32  27  80 SE16      30.04F WCI  21
PRESTON        CLOUDY    32  26  79 S13G18    30.07S WCI  22
OWATONNA       PTCLDY    34  27  75 SE18G26   30.00F WCI  23
FARIBAULT      CLOUDY    34  27  75 SE16G22   30.02F WCI  23
$$

...ELSEWHERE IN MINNESOTA...


CITY           SKY/WX    TMP DP  RH WIND       PRES   REMARKS
MINNEAPOLIS    CLOUDY    33  27  78 SE14G24   30.02F WCI  23
INTNL FALLS    CLOUDY    27  21  78 SE15G28   29.93F WCI  15
DULUTH         CLOUDY    26  23  88 SE16      30.04F WCI  14
RED WING       MOCLDY    34  25  69 SE13G18   30.06F WCI  25
REDWOOD FALLS  CLOUDY    31  26  82 SE16G26   29.91F WCI  20
MANKATO        CLOUDY    32  27  81 SE20G26   29.96F WCI  20
WORTHINGTON    CLOUDY    29  26  89 SE20      29.86R WCI  16
FAIRMONT       PTCLDY    30  27  88 SE22      29.93F WCI  17
$$

...SOUTHWEST WISCONSIN...


CITY           SKY/WX    TMP DP  RH WIND       PRES   REMARKS
LA CROSSE      PTCLDY    36  27  69 SE15      30.11F WCI  27
PRAIRIE DU CHI CLOUDY    35  27  71 E12G20    30.14F WCI  27
BOSCOBEL       PTCLDY    36  27  69 VRB5      30.18S WCI  32
LONE ROCK      CLOUDY    34  28  79 SE8       30.18F WCI  27
PLATTEVILLE    CLOUDY    33  30  88 SE13G18   30.17F WCI  24
FORT MC COY    CLOUDY    32  27  79 SE8       30.14F WCI  25
CAMP DOUGLAS   CLOUDY    32  25  74 SE12      30.14F WCI  23
MAUSTON-NEW LI CLOUDY    33  26  75 SE10      30.15F WCI  24
VIROQUA        CLOUDY    32  29  90 SE13      30.12S WCI  22
WIS DELLS      MOCLDY    31  25  77 SE8       30.17F WCI  24
$$

...ELSEWHERE IN WISCONSIN...


CITY           SKY/WX    TMP DP  RH WIND       PRES   REMARKS
MILWAUKEE      MOCLDY    37  29  72 E5        30.25S WCI  33
MADISON        CLOUDY    33  26  75 S7        30.20F WCI  27
GREEN BAY      CLOUDY    32  25  75 SE8       30.26S WCI  25
EAU CLAIRE     CLOUDY    33  24  69 SE10      30.11R WCI  25
BLACK RVR FLS  CLOUDY    32  23  70 CALM      30.13S
MEDFORD        CLOUDY    28  23  81 SE9       30.10F WCI  20
WAUSAU         CLOUDY    29  23  78 SE12      30.14F WCI  19
WIS RAPIDS     CLOUDY    32  24  72 SE9       30.17F WCI  24
MARSHFIELD     CLOUDY    31  23  72 SE9       30.13S WCI  23
RICE LAKE      CLOUDY    31  25  76 SE12      30.09F WCI  22
$$

...NORTHEAST IOWA...


CITY           SKY/WX    TMP DP  RH WIND       PRES   REMARKS
WATERLOO       CLOUDY    34  27  75 SE16      30.11F WCI  24
DUBUQUE        MOCLDY    32  26  78 S14       30.17F WCI  22
DECORAH        CLOUDY    34  28  80 SE14G22   30.08F WCI  24
MASON CITY     CLOUDY    32  27  81 SE20G26   30.03F WCI  20
CHARLES CITY   CLOUDY    34  30  86 S13       30.09S WCI  25
OELWEIN        CLOUDY    34  32  93 SE17      30.11F WCI  23
$$

...ELSEWHERE IN IOWA...


CITY           SKY/WX    TMP DP  RH WIND       PRES   REMARKS
DES MOINES     CLOUDY    35  28  75 E12       30.05F WCI  27
IOWA CITY      CLOUDY    33  28  81 SE9       30.19F WCI  25
FORT DODGE     CLOUDY    31  28  89 SE14G22   29.99F WCI  21
MARSHALLTOWN   CLOUDY    32  28  85 SE17      30.08F WCI  21
CEDAR RAPIDS   MOCLDY    33  28  81 SE12      30.14F WCI  24
$$

...NORTHERN ILLINOIS...


CITY           SKY/WX    TMP DP  RH WIND       PRES   REMARKS
CHICAGO-OHARE  CLOUDY    37  29  72 SE7       30.25R WCI  32
CHICAGO-MIDWAY CLOUDY    38  29  70 CALM      30.26R
MOLINE         CLOUDY    31  26  82 E7        30.21S WCI  24
ROCKFORD       CLOUDY    34  27  75 S8        30.25F WCI  27
PEORIA         CLOUDY    33  29  85 E12       30.23F WCI  24
$$

NOTE: "FAIR" INDICATES FEW OR NO CLOUDS BELOW 12,000 FEET WITH NO
SIGNIFICANT WEATHER AND/OR OBSTRUCTIONS TO VISIBILITY. WIND
SPEEDS ARE IN MILES-PER-HOUR.




USA.gov is the U.S. government's official web portal to all federal, state and local government web resources and services.